Yuma MCAS, AZ

1:50 PM MST on May 21, 2018 (GMT -0700)
Yuma Marine Corps Air Station

Weather History for KNYL - August, 2014

Change the Weather History Date:

Sunday, August 17, 2014

  Actual Average Record
Temperature  
Mean Temperature 99 °F 94 °F  
Max Temperature 111 °F 106 °F 114 °F (1953)
Min Temperature 87 °F 82 °F 61 °F (1918)
Degree Days  
Heating Degree Days 0 0  
Month to date heating degree days 0 0  
Since 1 June heating degree days 0 0  
Since 1 July heating degree days 0 0  
Cooling Degree Days 34 29  
Month to date cooling degree days 489 505  
Year to date cooling degree days 3438 3051  
Since 1 June cooling degree days 2276 2139  
Growing Degree Days 48 (Base 50)    
Moisture  
Dew Point 63 °F    
Average Humidity 38    
Maximum Humidity 55    
Minimum Humidity 20    
Precipitation  
Precipitation 0.00 in 0.02 in 0.37 in (1945)
Month to date precipitation 0.02 0.26  
Year to date precipitation 0.37 1.88  
Sea Level Pressure  
Sea Level Pressure 29.77 in    
Wind  
Wind Speed 8 mph (SSW)    
Max Wind Speed 16 mph    
Max Gust Speed 20 mph    
Visibility 10 miles    
Events Thunderstorm    
T = Trace of Precipitation, MM = Missing Value Source: NWS Daily Summary

Daily Weather History Graph

Daily Weather History Graph

Search for Another Location

Airport or City:

Astronomy

Aug. 17, 2014 Rise Set
Actual Time 6:03 AM MST 7:20 PM MST
Civil Twilight 5:37 AM MST 7:46 PM MST
Nautical Twilight 5:06 AM MST 8:17 PM MST
Astronomical Twilight 4:34 AM MST 8:49 PM MST
Moon No Moon Rise 1:26 PM MST (8/17)
Length of Visible Light 14h 09m
Length of Day
13h 17m
Waning Gibbous, 47% of the Moon is Illuminated
Aug 17
Waning Gibbous
Aug 25
New
Sep 2
First Quarter
Sep 8
Full
Sep 15
Last Quarter

Hourly Weather History & Observations

Time (MST) Temp. Heat Index Dew Point Humidity Pressure Visibility Wind Dir Wind Speed Gust Speed Precip Events Conditions
12:57 AM 91.0 °F 91.5 °F 62.1 °F 38% 29.81 in 10.0 mi SSE 9.2 mph - N/A   Clear
1:57 AM 91.0 °F 91.9 °F 63.0 °F 39% 29.81 in 10.0 mi SSE 9.2 mph - N/A   Clear
2:57 AM 90.0 °F 90.3 °F 62.1 °F 39% 29.81 in 10.0 mi South 3.5 mph - N/A   Clear
3:57 AM 90.0 °F 91.3 °F 64.0 °F 42% 29.81 in 10.0 mi SSE 6.9 mph - N/A   Clear
4:57 AM 89.1 °F 91.3 °F 66.0 °F 46% 29.81 in 10.0 mi Calm Calm - N/A   Clear
5:57 AM 88.0 °F 90.7 °F 66.9 °F 49% 29.82 in 10.0 mi SSW 3.5 mph - N/A   Clear
6:57 AM 88.0 °F 92.9 °F 70.0 °F 55% 29.83 in 10.0 mi SSE 8.1 mph - N/A   Clear
7:57 AM 91.9 °F 97.4 °F 70.0 °F 48% 29.84 in 10.0 mi SSE 10.4 mph - N/A   Clear
8:57 AM 96.1 °F 101.0 °F 68.0 °F 40% 29.85 in 10.0 mi South 9.2 mph - N/A   Clear
9:57 AM 99.0 °F 103.5 °F 66.9 °F 35% 29.85 in 10.0 mi SSW 9.2 mph - N/A   Clear
10:57 AM 102.0 °F 106.6 °F 66.0 °F 31% 29.85 in 10.0 mi SW 8.1 mph - N/A   Clear
11:57 AM 102.9 °F 106.8 °F 64.9 °F 29% 29.83 in 10.0 mi WSW 5.8 mph - N/A   Clear
12:57 PM 106.0 °F 110.1 °F 64.9 °F 26% 29.81 in 10.0 mi SW 10.4 mph - N/A   Clear
1:57 PM 107.1 °F 110.4 °F 63.0 °F 24% 29.79 in 10.0 mi South 10.4 mph - N/A   Clear
2:57 PM 109.9 °F 111.9 °F 60.1 °F 20% 29.75 in 10.0 mi SW 8.1 mph - N/A   Clear
3:57 PM 109.0 °F 110.5 °F 60.1 °F 20% 29.72 in 10.0 mi Variable 5.8 mph - N/A   Clear
4:57 PM 109.0 °F 110.5 °F 59.0 °F 20% 29.70 in 10.0 mi West 8.1 mph - N/A   Clear
5:57 PM 108.0 °F 108.8 °F 59.0 °F 20% 29.68 in 10.0 mi Variable 6.9 mph - N/A   Clear
6:57 PM 107.1 °F 108.1 °F 59.0 °F 21% 29.69 in 10.0 mi WSW 10.4 mph - N/A   Clear
7:57 PM 104.0 °F 105.3 °F 60.1 °F 24% 29.70 in 10.0 mi WSW 8.1 mph - N/A   Clear
8:19 PM 102.9 °F 103.6 °F 60.1 °F 24% 29.72 in 10.0 mi SSW 11.5 mph - N/A Thunderstorm Thunderstorm
8:52 PM 100.4 °F 103.6 °F 64.4 °F 31% 29.73 in 10.0 mi SSW 9.2 mph - N/A   Clear
8:57 PM 99.0 °F 102.3 °F 64.9 °F 33% 29.73 in 10.0 mi SSW 8.1 mph - N/A   Clear
9:57 PM 97.0 °F 99.3 °F 64.0 °F 34% 29.73 in 10.0 mi South 15.0 mph - N/A   Clear
10:57 PM 98.1 °F 98.6 °F 61.0 °F 29% 29.73 in 10.0 mi SSW 8.1 mph - N/A   Clear
11:57 PM 97.0 °F 97.4 °F 61.0 °F 30% 29.73 in 10.0 mi SSE 8.1 mph - N/A   Clear